Location: �clusier
(49.9361°N, 2.7869°E)
Time: 17:31:30
(UTC+00:00)

NOAA 13 - Pass Details

Date: 03 February 2022
Orbit: 842 x 857 km, 98.5° (Epoch: 19 May)

Event Time Altitude Azimuth Distance (km) Brightness Sun altitude
Rises 04:35:25 0° 16° (NNE) 3,429 8.1 -26.6°
Reaches altitude 10° 04:37:49 10° 19° (NNE) 2,491 7.4 -26.2°
Maximum altitude 04:43:20 70° 103° (ESE) 911 4.9 -25.3°
Drops below altitude 10° 04:48:50 10° 187° (S) 2,483 7.0 -24.4°
Sets 04:51:13 0° 189° (S) 3,416 7.7 -24.0°
